STARLINK-16 FULL STACK 1 72000C 20088A 20330.10255683 .00084989 00000-0 10861-3 0 05 2 72000 53.0534 354.5994 0114861 50.8207 23.4752 15.94691548 19 STARLINK-16 SINGLE SAT 1 72001C 20088B 20330.10255683 .01239515 00000-0 15856-2 0 02 2 72001 53.0533 354.5994 0114925 50.9060 23.3905 15.94662059 12